Weather History for St. George, AK

Change the Weather History Date:

Friday, September 27, 2013

  Actual Average Record
Temperature  
Mean Temperature 42 °F -  
Max Temperature 46 °F 45 °F 54 °F (2003)
Min Temperature 34 °F 38 °F 28 °F (1998)
Degree Days  
Heating Degree Days 22    
Moisture  
Dew Point 40 °F    
Average Humidity 85    
Maximum Humidity 93    
Minimum Humidity 71    
Precipitation  
Precipitation 0.01 in - - ()
Sea Level Pressure  
Sea Level Pressure 29.67 in    
Wind  
Wind Speed 23 mph (NW)    
Max Wind Speed 33 mph    
Max Gust Speed 43 mph    
Visibility 9 miles    
Events Rain    
Averages and records for this station are not official NWS values.
T = Trace of Precipitation, MM = Missing Value Source: NWS Daily Summary

Daily Weather History Graph

Daily Weather History Graph

Search for Another Location

Airport:

Trip Planner

Search our weather history database for the weather conditions in past years. The results will help you decide how hot, cold, wet, or windy it might be!

Date:

Astronomy

Sep. 27, 2013 Rise Set
Actual Time 9:14 AM AKDT 9:02 PM AKDT
Civil Twilight 8:37 AM AKDT 9:40 PM AKDT
Nautical Twilight 7:52 AM AKDT 10:24 PM AKDT
Astronomical Twilight 7:06 AM AKDT 11:10 PM AKDT
Moon 1:19 AM AKDT (9/27) 5:49 PM AKDT (9/27)
Length of Visible Light 13h 02m
Length of Day
11h 47m
Last Quarter, 44% of the Moon is Illuminated
Sep 27
Last Quarter
Oct 4
New
Oct 11
First Quarter
Oct 18
Full
Oct 26
Last Quarter

Hourly Weather History & Observations

Time (AKDT) Temp. Windchill Dew Point Humidity Pressure Visibility Wind Dir Wind Speed Gust Speed Precip Events Conditions
12:16 AM 46.4 °F 36.7 °F 42.8 °F 87% 29.33 in 7.0 mi WNW 33.4 mph 41.4 mph N/A   Overcast
12:26 AM 46.4 °F 37.5 °F 44.6 °F 93% 29.35 in 5.0 mi WNW 27.6 mph 40.3 mph N/A   Overcast
12:53 AM 45.0 °F 35.8 °F 43.0 °F 93% 29.33 in 5.0 mi WNW 26.5 mph 40.3 mph N/A   Overcast
1:25 AM 46.4 °F 38.3 °F 44.6 °F 93% 29.38 in 6.0 mi WNW 23.0 mph 34.5 mph N/A   Overcast
1:53 AM 46.0 °F 36.9 °F 44.1 °F 93% 29.36 in 7.0 mi WNW 28.8 mph 42.6 mph N/A   Overcast
2:17 AM 46.4 °F 38.1 °F 42.8 °F 87% 29.40 in 9.0 mi WNW 24.2 mph 35.7 mph N/A   Overcast
2:53 AM 46.0 °F 37.0 °F 43.0 °F 89% 29.39 in 7.0 mi WNW 27.6 mph 38.0 mph N/A   Mostly Cloudy
3:49 AM 46.4 °F 38.7 °F 42.8 °F 87% 29.47 in 5.0 mi WNW 20.7 mph 38.0 mph N/A   Overcast
3:53 AM 46.0 °F 38.0 °F 43.0 °F 89% 29.44 in 5.0 mi WNW 21.9 mph 38.0 mph N/A   Overcast
4:08 AM 46.4 °F 38.5 °F 42.8 °F 87% 29.48 in 9.0 mi WNW 21.9 mph 33.4 mph N/A   Overcast
4:49 AM 46.4 °F 38.7 °F 42.8 °F 87% 29.51 in 7.0 mi WNW 20.7 mph 28.8 mph N/A   Overcast
4:53 AM 46.0 °F 38.3 °F 43.0 °F 89% 29.47 in 7.0 mi WNW 20.7 mph 28.8 mph N/A   Overcast
5:07 AM 46.4 °F 38.3 °F 42.8 °F 87% 29.52 in 8.0 mi WNW 23.0 mph 34.5 mph N/A   Overcast
5:17 AM 46.4 °F 38.5 °F 42.8 °F 87% 29.52 in 10.0 mi NW 21.9 mph 31.1 mph N/A   Overcast
5:25 AM 44.6 °F 36.1 °F 42.8 °F 93% 29.53 in 9.0 mi NW 21.9 mph 28.8 mph N/A   Overcast
5:29 AM 44.6 °F 36.9 °F 42.8 °F 93% 29.55 in 9.0 mi NNW 18.4 mph 27.6 mph N/A   Overcast
5:42 AM 44.6 °F 36.6 °F 42.8 °F 93% 29.56 in 10.0 mi NNW 19.6 mph - N/A   Overcast
5:53 AM 44.1 °F 35.9 °F 42.1 °F 93% 29.54 in 10.0 mi NNW 19.6 mph 26.5 mph N/A   Mostly Cloudy
6:03 AM 44.6 °F 35.9 °F 42.8 °F 93% 29.57 in 10.0 mi NNW 23.0 mph 29.9 mph N/A   Mostly Cloudy
6:11 AM 44.6 °F 35.7 °F 41.0 °F 87% 29.58 in 10.0 mi NNW 24.2 mph 32.2 mph N/A   Mostly Cloudy
6:53 AM 43.0 °F 33.5 °F 39.9 °F 89% 29.59 in 10.0 mi NNW 24.2 mph 29.9 mph N/A   Scattered Clouds
7:53 AM 43.0 °F 34.5 °F 39.0 °F 86% 29.63 in 10.0 mi NNW 19.6 mph 28.8 mph N/A   Clear
8:53 AM 43.0 °F 34.5 °F 39.9 °F 89% 29.69 in 10.0 mi NW 19.6 mph 26.5 mph N/A   Scattered Clouds
9:02 AM 42.8 °F 34.3 °F 39.2 °F 87% 29.72 in 10.0 mi NW 19.6 mph - N/A   Mostly Cloudy
9:39 AM 42.8 °F 34.5 °F 39.2 °F 87% 29.75 in 10.0 mi NW 18.4 mph 24.2 mph N/A   Mostly Cloudy
9:53 AM 43.0 °F 35.1 °F 39.9 °F 89% 29.73 in 10.0 mi NW 17.3 mph 24.2 mph N/A   Mostly Cloudy
10:53 AM 43.0 °F 34.5 °F 39.9 °F 89% 29.76 in 10.0 mi NW 19.6 mph 24.2 mph N/A   Partly Cloudy
11:21 AM 42.8 °F 33.5 °F 37.4 °F 81% 29.82 in 8.0 mi NW 23.0 mph 32.2 mph N/A   Mostly Cloudy
11:36 AM 42.8 °F 35.4 °F 37.4 °F 81% 29.83 in 9.0 mi NW 15.0 mph 26.5 mph 0.01 in   Overcast
11:53 AM 44.1 °F 36.2 °F 39.0 °F 82% 29.80 in 10.0 mi NW 18.4 mph 25.3 mph 0.01 in   Scattered Clouds
12:53 PM 44.1 °F 35.0 °F 37.9 °F 79% 29.83 in 10.0 mi NW 24.2 mph 31.1 mph N/A   Scattered Clouds
1:53 PM 44.1 °F 35.4 °F 37.9 °F 79% 29.85 in 10.0 mi NW 21.9 mph 27.6 mph N/A   Mostly Cloudy
2:04 PM 44.6 °F 36.6 °F 37.4 °F 76% 29.89 in 10.0 mi NW 19.6 mph 27.6 mph N/A   Scattered Clouds
2:53 PM 46.0 °F 38.0 °F 39.0 °F 76% 29.87 in 10.0 mi NW 21.9 mph 28.8 mph N/A   Mostly Cloudy
3:01 PM 42.8 °F 34.3 °F 39.2 °F 87% 29.91 in 4.0 mi NW 19.6 mph 29.9 mph 0.00 in Rain Light Rain
3:14 PM 44.6 °F 36.9 °F 39.2 °F 81% 29.91 in 10.0 mi NW 18.4 mph 31.1 mph 0.00 in   Scattered Clouds
3:53 PM 46.0 °F 38.3 °F 37.9 °F 73% 29.88 in 10.0 mi NW 20.7 mph - 0.00 in   Partly Cloudy
4:53 PM 46.0 °F 38.3 °F 37.0 °F 71% 29.90 in 10.0 mi NW 20.7 mph 25.3 mph N/A   Clear
5:53 PM 46.0 °F 38.5 °F 37.0 °F 71% 29.92 in 10.0 mi NW 19.6 mph 25.3 mph N/A   Partly Cloudy
6:53 PM 45.0 °F 38.2 °F 36.0 °F 71% 29.93 in 10.0 mi NW 15.0 mph 23.0 mph N/A   Clear
7:53 PM 44.1 °F 38.1 °F 37.0 °F 76% 29.94 in 10.0 mi WNW 11.5 mph - N/A   Mostly Cloudy
8:53 PM 42.1 °F 37.7 °F 35.1 °F 76% 29.96 in 10.0 mi NW 6.9 mph - N/A   Scattered Clouds
9:53 PM 39.9 °F 34.5 °F 35.1 °F 83% 29.96 in 10.0 mi NW 8.1 mph - N/A   Scattered Clouds
10:53 PM 39.9 °F 35.1 °F 36.0 °F 86% 29.97 in 10.0 mi WNW 6.9 mph - N/A   Mostly Cloudy
11:53 PM 34.0 °F 28.0 °F 32.0 °F 92% 29.97 in 10.0 mi NW 6.9 mph - N/A   Clear